Location: Newark
(32.9167°N, 112.9667°W)
Time: 03:21:37
(UTC+00:00)

N. Korean satellite - Pass Details

Date: 30 October 2019
Orbit: 456 x 506 km, 97.2° (Epoch: 16 November)

Event Time Altitude Azimuth Distance (km) Brightness Sun altitude
Rises 13:08:32 0° 15° (NNE) 2,596 10.3 -8.9°
Reaches altitude 10° 13:10:38 10° 19° (NNE) 1,713 9.5 -8.5°
Maximum altitude 13:14:18 60° 100° (E) 582 7.3 -7.7°
Drops below altitude 10° 13:17:56 10° 181° (S) 1,711 9.5 -7.0°
Sets 13:20:02 0° 185° (S) 2,591 10.4 -6.5°
